owner,sensor,date,latitude,longitude,sea_surface_height_above_sea_level,qcFlag 
COMPS,ioos:station:USF.COMPS:FHP:1,2019-08-01T00:54:00,28.1530,-82.8010,-0.442,11114222 
COMPS,ioos:station:USF.COMPS:FHP:1,2019-08-01T01:54:00,28.1530,-82.8010,-0.264,11114222 
COMPS,ioos:station:USF.COMPS:FHP:1,2019-08-01T02:54:00,28.1530,-82.8010,-0.005,11114222 
COMPS,ioos:station:USF.COMPS:FHP:1,2019-08-01T03:54:00,28.1530,-82.8010,0.176,11111222 
COMPS,ioos:station:USF.COMPS:FHP:1,2019-08-01T04:54:00,28.1530,-82.8010,0.329,11111222 
COMPS,ioos:station:USF.COMPS:FHP:1,2019-08-01T05:54:00,28.1530,-82.8010,0.522,11111222 
COMPS,ioos:station:USF.COMPS:FHP:1,2019-08-01T06:54:00,28.1530,-82.8010,0.551,11111222 
COMPS,ioos:station:USF.COMPS:FHP:1,2019-08-01T07:54:00,28.1530,-82.8010,0.435,11111222 
COMPS,ioos:station:USF.COMPS:FHP:1,2019-08-01T08:54:00,28.1530,-82.8010,0.26,11111222 
COMPS,ioos:station:USF.COMPS:FHP:1,2019-08-01T09:54:00,28.1530,-82.8010,0.086,11111222 
COMPS,ioos:station:USF.COMPS:FHP:1,2019-08-01T10:54:00,28.1530,-82.8010,-0.029,11114222 
COMPS,ioos:station:USF.COMPS:FHP:1,2019-08-01T11:54:00,28.1530,-82.8010,-0.024,11114222 
COMPS,ioos:station:USF.COMPS:FHP:1,2019-08-01T12:54:00,28.1530,-82.8010,0.217,11111222 
COMPS,ioos:station:USF.COMPS:FHP:1,2019-08-01T13:54:00,28.1530,-82.8010,0.496,11111222 
COMPS,ioos:station:USF.COMPS:FHP:1,2019-08-01T14:54:00,28.1530,-82.8010,0.724,11111222 
COMPS,ioos:station:USF.COMPS:FHP:1,2019-08-01T15:54:00,28.1530,-82.8010,0.898,11111222 
COMPS,ioos:station:USF.COMPS:FHP:1,2019-08-01T16:54:00,28.1530,-82.8010,0.881,11111222 
COMPS,ioos:station:USF.COMPS:FHP:1,2019-08-01T17:54:00,28.1530,-82.8010,0.824,11111222 
COMPS,ioos:station:USF.COMPS:FHP:1,2019-08-01T18:54:00,28.1530,-82.8010,0.619,11111222 
COMPS,ioos:station:USF.COMPS:FHP:1,2019-08-01T19:54:00,28.1530,-82.8010,0.376,11111222 
COMPS,ioos:station:USF.COMPS:FHP:1,2019-08-01T20:54:00,28.1530,-82.8010,0.108,11111222 
COMPS,ioos:station:USF.COMPS:FHP:1,2019-08-01T21:54:00,28.1530,-82.8010,-0.167,11114222 
COMPS,ioos:station:USF.COMPS:FHP:1,2019-08-01T22:54:00,28.1530,-82.8010,-0.353,11114222 
COMPS,ioos:station:USF.COMPS:FHP:1,2019-08-01T23:54:00,28.1530,-82.8010,-0.421,11114222 
COMPS,ioos:station:USF.COMPS:FHP:1,2019-08-02T00:54:00,28.1530,-82.8010,-0.431,11114222 
COMPS,ioos:station:USF.COMPS:FHP:1,2019-08-02T01:54:00,28.1530,-82.8010,-0.366,11114222 
COMPS,ioos:station:USF.COMPS:FHP:1,2019-08-02T02:54:00,28.1530,-82.8010,-0.153,11114222 
COMPS,ioos:station:USF.COMPS:FHP:1,2019-08-02T03:54:00,28.1530,-82.8010,0.067,11111222 
COMPS,ioos:station:USF.COMPS:FHP:1,2019-08-02T04:54:00,28.1530,-82.8010,0.363,11111222 
COMPS,ioos:station:USF.COMPS:FHP:1,2019-08-02T05:54:00,28.1530,-82.8010,0.523,11111222 
COMPS,ioos:station:USF.COMPS:FHP:1,2019-08-02T06:54:00,28.1530,-82.8010,0.568,11111222 
COMPS,ioos:station:USF.COMPS:FHP:1,2019-08-02T07:54:00,28.1530,-82.8010,0.486,11111222 
COMPS,ioos:station:USF.COMPS:FHP:1,2019-08-02T08:54:00,28.1530,-82.8010,0.359,11111222 
COMPS,ioos:station:USF.COMPS:FHP:1,2019-08-02T09:54:00,28.1530,-82.8010,0.209,11111222 
COMPS,ioos:station:USF.COMPS:FHP:1,2019-08-02T10:54:00,28.1530,-82.8010,0.119,11111222 
COMPS,ioos:station:USF.COMPS:FHP:1,2019-08-02T11:54:00,28.1530,-82.8010,0.076,11111222 
COMPS,ioos:station:USF.COMPS:FHP:1,2019-08-02T12:54:00,28.1530,-82.8010,0.181,11111222 
COMPS,ioos:station:USF.COMPS:FHP:1,2019-08-02T13:54:00,28.1530,-82.8010,0.377,11111222 
COMPS,ioos:station:USF.COMPS:FHP:1,2019-08-02T14:54:00,28.1530,-82.8010,0.611,11111222 
COMPS,ioos:station:USF.COMPS:FHP:1,2019-08-02T15:54:00,28.1530,-82.8010,0.822,11111222 
COMPS,ioos:station:USF.COMPS:FHP:1,2019-08-02T16:54:00,28.1530,-82.8010,0.957,11111222 
COMPS,ioos:station:USF.COMPS:FHP:1,2019-08-02T17:54:00,28.1530,-82.8010,0.945,11111222 
COMPS,ioos:station:USF.COMPS:FHP:1,2019-08-02T18:54:00,28.1530,-82.8010,0.814,11111222 
COMPS,ioos:station:USF.COMPS:FHP:1,2019-08-02T19:54:00,28.1530,-82.8010,0.679,11111222 
COMPS,ioos:station:USF.COMPS:FHP:1,2019-08-02T20:54:00,28.1530,-82.8010,0.433,11111222 
COMPS,ioos:station:USF.COMPS:FHP:1,2019-08-02T21:54:00,28.1530,-82.8010,0.131,11111222 
COMPS,ioos:station:USF.COMPS:FHP:1,2019-08-02T22:54:00,28.1530,-82.8010,-0.112,11114222 
COMPS,ioos:station:USF.COMPS:FHP:1,2019-08-02T23:54:00,28.1530,-82.8010,-0.288,11114222 
COMPS,ioos:station:USF.COMPS:FHP:1,2019-08-03T00:54:00,28.1530,-82.8010,-0.384,11114222 
COMPS,ioos:station:USF.COMPS:FHP:1,2019-08-03T01:54:00,28.1530,-82.8010,-0.366,11114222 
COMPS,ioos:station:USF.COMPS:FHP:1,2019-08-03T02:54:00,28.1530,-82.8010,-0.149,11114222 
COMPS,ioos:station:USF.COMPS:FHP:1,2019-08-03T03:54:00,28.1530,-82.8010,0.096,11111222 
COMPS,ioos:station:USF.COMPS:FHP:1,2019-08-03T04:54:00,28.1530,-82.8010,0.359,11111222 
COMPS,ioos:station:USF.COMPS:FHP:1,2019-08-03T05:54:00,28.1530,-82.8010,0.538,11111222 
COMPS,ioos:station:USF.COMPS:FHP:1,2019-08-03T06:54:00,28.1530,-82.8010,0.63,11111222 
COMPS,ioos:station:USF.COMPS:FHP:1,2019-08-03T07:54:00,28.1530,-82.8010,0.612,11111222 
COMPS,ioos:station:USF.COMPS:FHP:1,2019-08-03T08:54:00,28.1530,-82.8010,0.503,11111222 
COMPS,ioos:station:USF.COMPS:FHP:1,2019-08-03T09:54:00,28.1530,-82.8010,0.351,11111222 
COMPS,ioos:station:USF.COMPS:FHP:1,2019-08-03T10:54:00,28.1530,-82.8010,0.188,11111222 
COMPS,ioos:station:USF.COMPS:FHP:1,2019-08-03T11:54:00,28.1530,-82.8010,0.097,11111222 
COMPS,ioos:station:USF.COMPS:FHP:1,2019-08-03T12:54:00,28.1530,-82.8010,0.079,11111222 
COMPS,ioos:station:USF.COMPS:FHP:1,2019-08-03T13:54:00,28.1530,-82.8010,0.21,11111222 
COMPS,ioos:station:USF.COMPS:FHP:1,2019-08-03T14:54:00,28.1530,-82.8010,0.422,11111222 
COMPS,ioos:station:USF.COMPS:FHP:1,2019-08-03T15:54:00,28.1530,-82.8010,0.61,11111222 
COMPS,ioos:station:USF.COMPS:FHP:1,2019-08-03T16:54:00,28.1530,-82.8010,0.786,11111222 
COMPS,ioos:station:USF.COMPS:FHP:1,2019-08-03T17:54:00,28.1530,-82.8010,0.911,11111222 
COMPS,ioos:station:USF.COMPS:FHP:1,2019-08-03T18:54:00,28.1530,-82.8010,0.875,11111222 
COMPS,ioos:station:USF.COMPS:FHP:1,2019-08-03T19:54:00,28.1530,-82.8010,0.768,11111222 
COMPS,ioos:station:USF.COMPS:FHP:1,2019-08-03T20:54:00,28.1530,-82.8010,0.589,11111222 
COMPS,ioos:station:USF.COMPS:FHP:1,2019-08-03T21:54:00,28.1530,-82.8010,0.37,11111222 
COMPS,ioos:station:USF.COMPS:FHP:1,2019-08-03T22:54:00,28.1530,-82.8010,0.138,11111222 
COMPS,ioos:station:USF.COMPS:FHP:1,2019-08-03T23:54:00,28.1530,-82.8010,-0.071,11114222 
COMPS,ioos:station:USF.COMPS:FHP:1,2019-08-04T00:54:00,28.1530,-82.8010,-0.204,11114222 
COMPS,ioos:station:USF.COMPS:FHP:1,2019-08-04T01:54:00,28.1530,-82.8010,-0.229,11114222 
COMPS,ioos:station:USF.COMPS:FHP:1,2019-08-04T02:54:00,28.1530,-82.8010,-0.13,11114222 
COMPS,ioos:station:USF.COMPS:FHP:1,2019-08-04T03:54:00,28.1530,-82.8010,0.077,11111222 
COMPS,ioos:station:USF.COMPS:FHP:1,2019-08-04T04:54:00,28.1530,-82.8010,0.321,11111222 
COMPS,ioos:station:USF.COMPS:FHP:1,2019-08-04T05:54:00,28.1530,-82.8010,0.528,11111222 
COMPS,ioos:station:USF.COMPS:FHP:1,2019-08-04T06:54:00,28.1530,-82.8010,0.639,11111222 
COMPS,ioos:station:USF.COMPS:FHP:1,2019-08-04T07:54:00,28.1530,-82.8010,0.645,11111222 
COMPS,ioos:station:USF.COMPS:FHP:1,2019-08-04T08:54:00,28.1530,-82.8010,0.567,11111222 
COMPS,ioos:station:USF.COMPS:FHP:1,2019-08-04T09:54:00,28.1530,-82.8010,0.447,11111222 
COMPS,ioos:station:USF.COMPS:FHP:1,2019-08-04T10:54:00,28.1530,-82.8010,0.283,11111222 
COMPS,ioos:station:USF.COMPS:FHP:1,2019-08-04T11:54:00,28.1530,-82.8010,0.13,11111222 
COMPS,ioos:station:USF.COMPS:FHP:1,2019-08-04T12:54:00,28.1530,-82.8010,0.04,11111222 
COMPS,ioos:station:USF.COMPS:FHP:1,2019-08-04T13:54:00,28.1530,-82.8010,0.072,11111222 
COMPS,ioos:station:USF.COMPS:FHP:1,2019-08-04T14:54:00,28.1530,-82.8010,0.196,11111222 
COMPS,ioos:station:USF.COMPS:FHP:1,2019-08-04T15:54:00,28.1530,-82.8010,0.378,11111222 
COMPS,ioos:station:USF.COMPS:FHP:1,2019-08-04T16:54:00,28.1530,-82.8010,0.582,11111222 
COMPS,ioos:station:USF.COMPS:FHP:1,2019-08-04T17:54:00,28.1530,-82.8010,0.742,11111222 
COMPS,ioos:station:USF.COMPS:FHP:1,2019-08-04T18:54:00,28.1530,-82.8010,0.814,11111222 
COMPS,ioos:station:USF.COMPS:FHP:1,2019-08-04T19:54:00,28.1530,-82.8010,0.77,11111222 
COMPS,ioos:station:USF.COMPS:FHP:1,2019-08-04T20:54:00,28.1530,-82.8010,0.66,11111222 
COMPS,ioos:station:USF.COMPS:FHP:1,2019-08-04T21:54:00,28.1530,-82.8010,0.503,11111222 
COMPS,ioos:station:USF.COMPS:FHP:1,2019-08-04T22:54:00,28.1530,-82.8010,0.295,11111222 
COMPS,ioos:station:USF.COMPS:FHP:1,2019-08-04T23:54:00,28.1530,-82.8010,0.088,11111222 
COMPS,ioos:station:USF.COMPS:FHP:1,2019-08-05T00:54:00,28.1530,-82.8010,-0.049,11114222 
COMPS,ioos:station:USF.COMPS:FHP:1,2019-08-05T01:54:00,28.1530,-82.8010,-0.135,11114222 
COMPS,ioos:station:USF.COMPS:FHP:1,2019-08-05T02:54:00,28.1530,-82.8010,-0.094,11114222 
COMPS,ioos:station:USF.COMPS:FHP:1,2019-08-05T03:54:00,28.1530,-82.8010,0.05,11111222 
COMPS,ioos:station:USF.COMPS:FHP:1,2019-08-05T04:54:00,28.1530,-82.8010,0.267,11111222 
COMPS,ioos:station:USF.COMPS:FHP:1,2019-08-05T05:54:00,28.1530,-82.8010,0.496,11111222 
COMPS,ioos:station:USF.COMPS:FHP:1,2019-08-05T06:54:00,28.1530,-82.8010,0.669,11111222 
COMPS,ioos:station:USF.COMPS:FHP:1,2019-08-05T07:54:00,28.1530,-82.8010,0.679,11111222 
COMPS,ioos:station:USF.COMPS:FHP:1,2019-08-05T08:54:00,28.1530,-82.8010,0.693,11111222 
COMPS,ioos:station:USF.COMPS:FHP:1,2019-08-05T09:54:00,28.1530,-82.8010,0.553,11111222 
COMPS,ioos:station:USF.COMPS:FHP:1,2019-08-05T10:54:00,28.1530,-82.8010,0.388,11111222 
COMPS,ioos:station:USF.COMPS:FHP:1,2019-08-05T11:54:00,28.1530,-82.8010,0.227,11111222 
COMPS,ioos:station:USF.COMPS:FHP:1,2019-08-05T12:54:00,28.1530,-82.8010,0.082,11111222 
COMPS,ioos:station:USF.COMPS:FHP:1,2019-08-05T13:54:00,28.1530,-82.8010,0.004,11111222 
COMPS,ioos:station:USF.COMPS:FHP:1,2019-08-05T14:54:00,28.1530,-82.8010,0.044,11111222 
COMPS,ioos:station:USF.COMPS:FHP:1,2019-08-05T15:54:00,28.1530,-82.8010,0.151,11111222 
COMPS,ioos:station:USF.COMPS:FHP:1,2019-08-05T16:54:00,28.1530,-82.8010,0.351,11111222 
COMPS,ioos:station:USF.COMPS:FHP:1,2019-08-05T17:54:00,28.1530,-82.8010,0.553,11111222 
COMPS,ioos:station:USF.COMPS:FHP:1,2019-08-05T18:54:00,28.1530,-82.8010,0.658,11111222 
COMPS,ioos:station:USF.COMPS:FHP:1,2019-08-05T19:54:00,28.1530,-82.8010,0.7,11111222 
COMPS,ioos:station:USF.COMPS:FHP:1,2019-08-05T20:54:00,28.1530,-82.8010,0.627,11111222 
COMPS,ioos:station:USF.COMPS:FHP:1,2019-08-05T21:54:00,28.1530,-82.8010,0.526,11111222 
COMPS,ioos:station:USF.COMPS:FHP:1,2019-08-05T22:54:00,28.1530,-82.8010,0.423,11111222 
COMPS,ioos:station:USF.COMPS:FHP:1,2019-08-05T23:54:00,28.1530,-82.8010,0.262,11111222 
COMPS,ioos:station:USF.COMPS:FHP:1,2019-08-06T00:54:00,28.1530,-82.8010,0.094,11111222 
COMPS,ioos:station:USF.COMPS:FHP:1,2019-08-06T01:54:00,28.1530,-82.8010,-0.012,11114222 
COMPS,ioos:station:USF.COMPS:FHP:1,2019-08-06T02:54:00,28.1530,-82.8010,-0.029,11114222 
COMPS,ioos:station:USF.COMPS:FHP:1,2019-08-06T03:54:00,28.1530,-82.8010,0.049,11111222 
COMPS,ioos:station:USF.COMPS:FHP:1,2019-08-06T04:54:00,28.1530,-82.8010,0.182,11111222 
COMPS,ioos:station:USF.COMPS:FHP:1,2019-08-06T05:54:00,28.1530,-82.8010,0.426,11111222 
COMPS,ioos:station:USF.COMPS:FHP:1,2019-08-06T06:54:00,28.1530,-82.8010,0.643,11111222 
COMPS,ioos:station:USF.COMPS:FHP:1,2019-08-06T07:54:00,28.1530,-82.8010,0.715,11111222 
COMPS,ioos:station:USF.COMPS:FHP:1,2019-08-06T08:54:00,28.1530,-82.8010,0.71,11111222 
COMPS,ioos:station:USF.COMPS:FHP:1,2019-08-06T09:54:00,28.1530,-82.8010,0.655,11111222 
COMPS,ioos:station:USF.COMPS:FHP:1,2019-08-06T10:54:00,28.1530,-82.8010,0.557,11111222 
COMPS,ioos:station:USF.COMPS:FHP:1,2019-08-06T11:54:00,28.1530,-82.8010,0.394,11111222 
COMPS,ioos:station:USF.COMPS:FHP:1,2019-08-06T12:54:00,28.1530,-82.8010,0.215,11111222 
COMPS,ioos:station:USF.COMPS:FHP:1,2019-08-06T13:54:00,28.1530,-82.8010,0.072,11111222 
COMPS,ioos:station:USF.COMPS:FHP:1,2019-08-06T14:54:00,28.1530,-82.8010,0.008,11111222 
COMPS,ioos:station:USF.COMPS:FHP:1,2019-08-06T15:54:00,28.1530,-82.8010,0.045,11111222 
COMPS,ioos:station:USF.COMPS:FHP:1,2019-08-06T16:54:00,28.1530,-82.8010,0.167,11111222 
COMPS,ioos:station:USF.COMPS:FHP:1,2019-08-06T17:54:00,28.1530,-82.8010,0.3,11111222 
COMPS,ioos:station:USF.COMPS:FHP:1,2019-08-06T18:54:00,28.1530,-82.8010,0.424,11111222 
COMPS,ioos:station:USF.COMPS:FHP:1,2019-08-06T19:54:00,28.1530,-82.8010,0.543,11111222 
COMPS,ioos:station:USF.COMPS:FHP:1,2019-08-06T20:54:00,28.1530,-82.8010,0.585,11111222 
COMPS,ioos:station:USF.COMPS:FHP:1,2019-08-06T21:54:00,28.1530,-82.8010,0.545,11111222 
COMPS,ioos:station:USF.COMPS:FHP:1,2019-08-06T22:54:00,28.1530,-82.8010,0.502,11111222 
COMPS,ioos:station:USF.COMPS:FHP:1,2019-08-06T23:54:00,28.1530,-82.8010,0.377,11111222 
COMPS,ioos:station:USF.COMPS:FHP:1,2019-08-07T00:54:00,28.1530,-82.8010,0.243,11111222 
COMPS,ioos:station:USF.COMPS:FHP:1,2019-08-07T01:54:00,28.1530,-82.8010,0.13,11111222 
COMPS,ioos:station:USF.COMPS:FHP:1,2019-08-07T02:54:00,28.1530,-82.8010,0.06,11111222 
COMPS,ioos:station:USF.COMPS:FHP:1,2019-08-07T03:48:00,28.1530,-82.8010,0.06,11111222 
COMPS,ioos:station:USF.COMPS:FHP:1,2019-08-07T04:54:00,28.1530,-82.8010,0.2,11111222 
COMPS,ioos:station:USF.COMPS:FHP:1,2019-08-07T05:54:00,28.1530,-82.8010,0.358,11111222 
COMPS,ioos:station:USF.COMPS:FHP:1,2019-08-07T06:54:00,28.1530,-82.8010,0.508,11111222 
COMPS,ioos:station:USF.COMPS:FHP:1,2019-08-07T07:54:00,28.1530,-82.8010,0.664,11111222 
COMPS,ioos:station:USF.COMPS:FHP:1,2019-08-07T08:54:00,28.1530,-82.8010,0.725,11111222 
COMPS,ioos:station:USF.COMPS:FHP:1,2019-08-07T09:54:00,28.1530,-82.8010,0.703,11111222 
COMPS,ioos:station:USF.COMPS:FHP:1,2019-08-07T10:54:00,28.1530,-82.8010,0.67,11111222 
COMPS,ioos:station:USF.COMPS:FHP:1,2019-08-07T11:54:00,28.1530,-82.8010,0.553,11111222 
COMPS,ioos:station:USF.COMPS:FHP:1,2019-08-07T12:54:00,28.1530,-82.8010,0.391,11111222 
COMPS,ioos:station:USF.COMPS:FHP:1,2019-08-07T13:54:00,28.1530,-82.8010,0.218,11111222 
COMPS,ioos:station:USF.COMPS:FHP:1,2019-08-07T14:54:00,28.1530,-82.8010,0.079,11111222 
COMPS,ioos:station:USF.COMPS:FHP:1,2019-08-07T15:54:00,28.1530,-82.8010,0.015,11111222 
COMPS,ioos:station:USF.COMPS:FHP:1,2019-08-07T16:54:00,28.1530,-82.8010,0.033,11111222 
COMPS,ioos:station:USF.COMPS:FHP:1,2019-08-07T17:54:00,28.1530,-82.8010,0.069,11111222 
COMPS,ioos:station:USF.COMPS:FHP:1,2019-08-07T18:54:00,28.1530,-82.8010,0.192,11111222 
COMPS,ioos:station:USF.COMPS:FHP:1,2019-08-07T19:54:00,28.1530,-82.8010,0.317,11111222 
COMPS,ioos:station:USF.COMPS:FHP:1,2019-08-07T20:54:00,28.1530,-82.8010,0.387,11111222 
COMPS,ioos:station:USF.COMPS:FHP:1,2019-08-07T21:54:00,28.1530,-82.8010,0.42,11111222 
COMPS,ioos:station:USF.COMPS:FHP:1,2019-08-07T22:54:00,28.1530,-82.8010,0.396,11111222 
COMPS,ioos:station:USF.COMPS:FHP:1,2019-08-07T23:54:00,28.1530,-82.8010,0.393,11111222 
COMPS,ioos:station:USF.COMPS:FHP:1,2019-08-08T00:54:00,28.1530,-82.8010,0.328,11111222 
COMPS,ioos:station:USF.COMPS:FHP:1,2019-08-08T01:54:00,28.1530,-82.8010,0.253,11111222 
COMPS,ioos:station:USF.COMPS:FHP:1,2019-08-08T02:54:00,28.1530,-82.8010,0.203,11111222 
COMPS,ioos:station:USF.COMPS:FHP:1,2019-08-08T05:54:00,28.1530,-82.8010,0.292,11111222 
COMPS,ioos:station:USF.COMPS:FHP:1,2019-08-08T06:54:00,28.1530,-82.8010,0.386,11111222 
COMPS,ioos:station:USF.COMPS:FHP:1,2019-08-08T07:54:00,28.1530,-82.8010,0.525,11111222 
COMPS,ioos:station:USF.COMPS:FHP:1,2019-08-08T08:54:00,28.1530,-82.8010,0.632,11111222 
COMPS,ioos:station:USF.COMPS:FHP:1,2019-08-08T09:54:00,28.1530,-82.8010,0.639,11111222 
COMPS,ioos:station:USF.COMPS:FHP:1,2019-08-08T10:54:00,28.1530,-82.8010,0.614,11111222 
COMPS,ioos:station:USF.COMPS:FHP:1,2019-08-08T11:54:00,28.1530,-82.8010,0.57,11111222 
COMPS,ioos:station:USF.COMPS:FHP:1,2019-08-08T12:54:00,28.1530,-82.8010,0.462,11111222 
COMPS,ioos:station:USF.COMPS:FHP:1,2019-08-08T13:54:00,28.1530,-82.8010,0.298,11111222 
COMPS,ioos:station:USF.COMPS:FHP:1,2019-08-08T14:54:00,28.1530,-82.8010,0.146,11111222 
COMPS,ioos:station:USF.COMPS:FHP:1,2019-08-08T15:54:00,28.1530,-82.8010,0.025,11111222 
COMPS,ioos:station:USF.COMPS:FHP:1,2019-08-08T16:54:00,28.1530,-82.8010,-0.056,11114222 
COMPS,ioos:station:USF.COMPS:FHP:1,2019-08-08T17:54:00,28.1530,-82.8010,-0.074,11114222 
COMPS,ioos:station:USF.COMPS:FHP:1,2019-08-08T18:54:00,28.1530,-82.8010,-0.011,11114222 
COMPS,ioos:station:USF.COMPS:FHP:1,2019-08-08T19:54:00,28.1530,-82.8010,0.069,11111222 
COMPS,ioos:station:USF.COMPS:FHP:1,2019-08-08T20:54:00,28.1530,-82.8010,0.168,11111222 
COMPS,ioos:station:USF.COMPS:FHP:1,2019-08-08T21:54:00,28.1530,-82.8010,0.261,11111222 
COMPS,ioos:station:USF.COMPS:FHP:1,2019-08-08T22:54:00,28.1530,-82.8010,0.325,11111222 
COMPS,ioos:station:USF.COMPS:FHP:1,2019-08-08T23:54:00,28.1530,-82.8010,0.319,11111222 
COMPS,ioos:station:USF.COMPS:FHP:1,2019-08-09T00:54:00,28.1530,-82.8010,0.359,11111222 
COMPS,ioos:station:USF.COMPS:FHP:1,2019-08-09T01:54:00,28.1530,-82.8010,0.311,11111222 
COMPS,ioos:station:USF.COMPS:FHP:1,2019-08-09T02:54:00,28.1530,-82.8010,0.237,11111222 
COMPS,ioos:station:USF.COMPS:FHP:1,2019-08-09T03:54:00,28.1530,-82.8010,0.195,11111222 
COMPS,ioos:station:USF.COMPS:FHP:1,2019-08-09T04:54:00,28.1530,-82.8010,0.226,11111222 
COMPS,ioos:station:USF.COMPS:FHP:1,2019-08-09T05:54:00,28.1530,-82.8010,0.263,11111222 
COMPS,ioos:station:USF.COMPS:FHP:1,2019-08-09T06:54:00,28.1530,-82.8010,0.278,11111222 
COMPS,ioos:station:USF.COMPS:FHP:1,2019-08-09T07:54:00,28.1530,-82.8010,0.368,11111222 
COMPS,ioos:station:USF.COMPS:FHP:1,2019-08-09T08:54:00,28.1530,-82.8010,0.481,11111222 
COMPS,ioos:station:USF.COMPS:FHP:1,2019-08-09T09:54:00,28.1530,-82.8010,0.551,11111222 
COMPS,ioos:station:USF.COMPS:FHP:1,2019-08-09T10:54:00,28.1530,-82.8010,0.618,11111222 
COMPS,ioos:station:USF.COMPS:FHP:1,2019-08-09T11:54:00,28.1530,-82.8010,0.618,11111222 
COMPS,ioos:station:USF.COMPS:FHP:1,2019-08-09T12:54:00,28.1530,-82.8010,0.518,11111222 
COMPS,ioos:station:USF.COMPS:FHP:1,2019-08-09T13:54:00,28.1530,-82.8010,0.461,11111222 
COMPS,ioos:station:USF.COMPS:FHP:1,2019-08-09T14:54:00,28.1530,-82.8010,0.335,11111222 
COMPS,ioos:station:USF.COMPS:FHP:1,2019-08-09T15:54:00,28.1530,-82.8010,0.168,11111222 
COMPS,ioos:station:USF.COMPS:FHP:1,2019-08-09T16:54:00,28.1530,-82.8010,0.033,11111222 
COMPS,ioos:station:USF.COMPS:FHP:1,2019-08-09T17:54:00,28.1530,-82.8010,-0.066,11114222 
COMPS,ioos:station:USF.COMPS:FHP:1,2019-08-09T18:54:00,28.1530,-82.8010,-0.122,11114222 
COMPS,ioos:station:USF.COMPS:FHP:1,2019-08-09T19:54:00,28.1530,-82.8010,-0.097,11114222 
COMPS,ioos:station:USF.COMPS:FHP:1,2019-08-09T20:54:00,28.1530,-82.8010,-0.049,11114222 
COMPS,ioos:station:USF.COMPS:FHP:1,2019-08-09T21:54:00,28.1530,-82.8010,0.065,11111222 
COMPS,ioos:station:USF.COMPS:FHP:1,2019-08-09T22:54:00,28.1530,-82.8010,0.174,11111222 
COMPS,ioos:station:USF.COMPS:FHP:1,2019-08-09T23:54:00,28.1530,-82.8010,0.246,11111222 
COMPS,ioos:station:USF.COMPS:FHP:1,2019-08-10T00:54:00,28.1530,-82.8010,0.304,11111222 
COMPS,ioos:station:USF.COMPS:FHP:1,2019-08-10T01:54:00,28.1530,-82.8010,0.355,11111222 
COMPS,ioos:station:USF.COMPS:FHP:1,2019-08-10T02:54:00,28.1530,-82.8010,0.369,11111222 
COMPS,ioos:station:USF.COMPS:FHP:1,2019-08-10T03:48:00,28.1530,-82.8010,0.277,11111222 
COMPS,ioos:station:USF.COMPS:FHP:1,2019-08-10T04:54:00,28.1530,-82.8010,0.226,11111222 
COMPS,ioos:station:USF.COMPS:FHP:1,2019-08-10T05:54:00,28.1530,-82.8010,0.24,11111222 
COMPS,ioos:station:USF.COMPS:FHP:1,2019-08-10T06:54:00,28.1530,-82.8010,0.27,11111222 
COMPS,ioos:station:USF.COMPS:FHP:1,2019-08-10T07:54:00,28.1530,-82.8010,0.267,11111222 
COMPS,ioos:station:USF.COMPS:FHP:1,2019-08-10T08:54:00,28.1530,-82.8010,0.346,11111222 
COMPS,ioos:station:USF.COMPS:FHP:1,2019-08-10T09:54:00,28.1530,-82.8010,0.429,11111222 
COMPS,ioos:station:USF.COMPS:FHP:1,2019-08-10T10:54:00,28.1530,-82.8010,0.522,11111222 
COMPS,ioos:station:USF.COMPS:FHP:1,2019-08-10T11:54:00,28.1530,-82.8010,0.57,11111222 
COMPS,ioos:station:USF.COMPS:FHP:1,2019-08-10T12:54:00,28.1530,-82.8010,0.562,11111222 
COMPS,ioos:station:USF.COMPS:FHP:1,2019-08-10T13:54:00,28.1530,-82.8010,0.522,11111222 
COMPS,ioos:station:USF.COMPS:FHP:1,2019-08-10T14:54:00,28.1530,-82.8010,0.413,11111222 
COMPS,ioos:station:USF.COMPS:FHP:1,2019-08-10T15:54:00,28.1530,-82.8010,0.306,11111222 
COMPS,ioos:station:USF.COMPS:FHP:1,2019-08-10T16:54:00,28.1530,-82.8010,0.164,11111222 
COMPS,ioos:station:USF.COMPS:FHP:1,2019-08-10T17:54:00,28.1530,-82.8010,0.023,11111222 
COMPS,ioos:station:USF.COMPS:FHP:1,2019-08-10T18:54:00,28.1530,-82.8010,-0.08,11114222 
COMPS,ioos:station:USF.COMPS:FHP:1,2019-08-10T19:54:00,28.1530,-82.8010,-0.162,11114222 
COMPS,ioos:station:USF.COMPS:FHP:1,2019-08-10T20:54:00,28.1530,-82.8010,-0.175,11114222 
COMPS,ioos:station:USF.COMPS:FHP:1,2019-08-10T21:54:00,28.1530,-82.8010,-0.108,11114222 
COMPS,ioos:station:USF.COMPS:FHP:1,2019-08-10T22:54:00,28.1530,-82.8010,0.025,11111222 
COMPS,ioos:station:USF.COMPS:FHP:1,2019-08-10T23:54:00,28.1530,-82.8010,0.171,11111222 
COMPS,ioos:station:USF.COMPS:FHP:1,2019-08-11T00:54:00,28.1530,-82.8010,0.299,11111222 
COMPS,ioos:station:USF.COMPS:FHP:1,2019-08-11T01:54:00,28.1530,-82.8010,0.369,11111222 
COMPS,ioos:station:USF.COMPS:FHP:1,2019-08-11T02:54:00,28.1530,-82.8010,0.369,11111222 
COMPS,ioos:station:USF.COMPS:FHP:1,2019-08-11T03:54:00,28.1530,-82.8010,0.364,11111222 
COMPS,ioos:station:USF.COMPS:FHP:1,2019-08-11T04:54:00,28.1530,-82.8010,0.324,11111222 
COMPS,ioos:station:USF.COMPS:FHP:1,2019-08-11T05:54:00,28.1530,-82.8010,0.239,11111222 
COMPS,ioos:station:USF.COMPS:FHP:1,2019-08-11T06:54:00,28.1530,-82.8010,0.197,11111222 
COMPS,ioos:station:USF.COMPS:FHP:1,2019-08-11T07:54:00,28.1530,-82.8010,0.176,11111222 
COMPS,ioos:station:USF.COMPS:FHP:1,2019-08-11T08:54:00,28.1530,-82.8010,0.237,11111222 
COMPS,ioos:station:USF.COMPS:FHP:1,2019-08-11T09:54:00,28.1530,-82.8010,0.331,11111222 
COMPS,ioos:station:USF.COMPS:FHP:1,2019-08-11T10:54:00,28.1530,-82.8010,0.472,11111222 
COMPS,ioos:station:USF.COMPS:FHP:1,2019-08-11T11:54:00,28.1530,-82.8010,0.59,11111222 
COMPS,ioos:station:USF.COMPS:FHP:1,2019-08-11T12:54:00,28.1530,-82.8010,0.672,11111222 
COMPS,ioos:station:USF.COMPS:FHP:1,2019-08-11T13:54:00,28.1530,-82.8010,0.655,11111222 
COMPS,ioos:station:USF.COMPS:FHP:1,2019-08-11T14:54:00,28.1530,-82.8010,0.565,11111222 
COMPS,ioos:station:USF.COMPS:FHP:1,2019-08-11T15:54:00,28.1530,-82.8010,0.479,11111222 
COMPS,ioos:station:USF.COMPS:FHP:1,2019-08-11T16:54:00,28.1530,-82.8010,0.322,11111222 
COMPS,ioos:station:USF.COMPS:FHP:1,2019-08-11T17:54:00,28.1530,-82.8010,0.178,11111222 
COMPS,ioos:station:USF.COMPS:FHP:1,2019-08-11T18:54:00,28.1530,-82.8010,0.003,11111222 
COMPS,ioos:station:USF.COMPS:FHP:1,2019-08-11T19:54:00,28.1530,-82.8010,-0.131,11114222 
COMPS,ioos:station:USF.COMPS:FHP:1,2019-08-11T20:54:00,28.1530,-82.8010,-0.208,11114222 
COMPS,ioos:station:USF.COMPS:FHP:1,2019-08-11T21:54:00,28.1530,-82.8010,-0.21,11114222 
COMPS,ioos:station:USF.COMPS:FHP:1,2019-08-11T22:54:00,28.1530,-82.8010,-0.157,11114222 
COMPS,ioos:station:USF.COMPS:FHP:1,2019-08-12T05:42:00,28.1530,-82.8010,0.316,11111222 
COMPS,ioos:station:USF.COMPS:FHP:1,2019-08-12T08:54:00,28.1530,-82.8010,0.181,11111222 
COMPS,ioos:station:USF.COMPS:FHP:1,2019-08-12T11:54:00,28.1530,-82.8010,0.472,11111222 
COMPS,ioos:station:USF.COMPS:FHP:1,2019-08-12T12:54:00,28.1530,-82.8010,0.591,11111222 
COMPS,ioos:station:USF.COMPS:FHP:1,2019-08-12T13:54:00,28.1530,-82.8010,0.69,11111222 
COMPS,ioos:station:USF.COMPS:FHP:1,2019-08-12T14:54:00,28.1530,-82.8010,0.668,11111222 
COMPS,ioos:station:USF.COMPS:FHP:1,2019-08-12T15:54:00,28.1530,-82.8010,0.606,11111222 
COMPS,ioos:station:USF.COMPS:FHP:1,2019-08-12T16:54:00,28.1530,-82.8010,0.463,11111222 
COMPS,ioos:station:USF.COMPS:FHP:1,2019-08-12T17:54:00,28.1530,-82.8010,0.273,11111222 
COMPS,ioos:station:USF.COMPS:FHP:1,2019-08-12T18:54:00,28.1530,-82.8010,0.115,11111222 